Home > Weather > Pontiac > Past weeks

Flag for U.S.A. Weather for the Past 2 Weeks in Pontiac, Michigan, U.S.A.

Now
16 °F

Overcast.


Feels Like: 7 °F
Forecast: 9 / 23 °F
Wind: 6 mph from Southwest

Location: Oakland County International Airport

Current Time: Feb 12, 2016 at 9:49:42 AM

Latest Report: Feb 12, 2016 at 8:53 AM


Visibility: 10 mi

Pressure: 30.06 "Hg

Humidity: 67%

Dew point: 7 °F

Location of PontiacLocation

Historic Weather in Pontiac — Graph

°F

Pontiac Temperature Yesterday

Maximum temperature yesterday: 18 °F (at 2:53 PM)
Minimum temperature yesterday: 6 °F (at 6:53 AM)
Average temperature yesterday: 11 °F

High & Low Weather Summary for the Past Weeks

 TemperatureHumidityPressure
High52 °F (Feb 3, 9:53 AM)97% (Feb 3, 1:53 AM)30.36 "Hg (Feb 3, 1:53 AM)
Low6 °F (Feb 11, 6:53 AM)42% (Feb 6, 1:53 PM)29.45 "Hg (Feb 3, 4:53 AM)
Average31 °F75%29.88 "Hg
* Reported Jan 28 8:53 AM — Feb 12 8:53 AM, Pontiac, Weather by CustomWeather, © 2016

Note: Actual official high and low records may vary slightly from our data, if they occured in-between our weather recording intervals... More about our weather records

Advertising

Pontiac Weather History for the Previous 24 Hours

 ConditionsComfort  
Time TempWeatherWind HumidityBarometerVisibility
8:53 AM
Fri, Feb 12
16 °FOvercast.6 mph67%30.06 "Hg10 mi
7:53 AM14 °FOvercast.7 mph73%30.07 "Hg10 mi
6:53 AM12 °FOvercast.8 mph77%30.10 "Hg10 mi
5:53 AM10 °FMostly cloudy.6 mph80%30.12 "Hg10 mi
4:53 AM9 °FPassing clouds.5 mph84%30.12 "Hg10 mi
3:53 AM7 °FClear.5 mph87%30.15 "Hg10 mi
2:53 AM9 °FClear.3 mph84%30.18 "Hg10 mi
1:53 AM9 °FClear.5 mph84%30.21 "Hg10 mi
12:53 AM9 °FClear.3 mph84%30.22 "Hg10 mi
11:53 PM
Thu, Feb 11
10 °FClear.3 mph76%30.24 "Hg10 mi
10:53 PM9 °FPassing clouds.3 mph73%30.24 "Hg10 mi
9:53 PM8 °FPassing clouds.3 mph76%30.25 "Hg10 mi
8:53 PM10 °FPassing clouds.No wind73%30.26 "Hg10 mi
7:53 PM13 °FPassing clouds.5 mph64%30.26 "Hg10 mi
6:53 PM15 °FPassing clouds.3 mph61%30.25 "Hg10 mi
5:53 PM16 °FScattered clouds.5 mph56%30.25 "Hg10 mi
3:53 PM17 °FPartly sunny.14 mph54%30.24 "Hg10 mi
2:53 PM18 °FPartly sunny.14 mph54%30.23 "Hg10 mi
1:53 PM16 °FPartly sunny.15 mph56%30.23 "Hg10 mi
12:53 PM15 °FPartly sunny.13 mph58%30.22 "Hg10 mi
11:53 AM14 °FPartly sunny.13 mph61%30.23 "Hg10 mi
10:53 AM13 °FPartly sunny.13 mph67%30.22 "Hg10 mi
9:53 AM12 °FPartly sunny.13 mph73%30.20 "Hg9 mi
Weather by CustomWeather, © 2016

See weather overviewHow to use our weather pages